Location: Coopersdale
(40.3556°N, 78.9372°W)
Time: 20:00:34
(UTC+00:00)

Transit 4A - Pass Details

Date: 23 January 2021
Orbit: 866 x 978 km, 66.8° (Epoch: 26 February)

Event Time Altitude Azimuth Distance (km) Brightness Sun altitude
Rises 07:31:52 0° 340° (NNW) 3,639 - -56.2°
Reaches altitude 10° 07:35:40 10° 2° (N) 2,668 - -55.5°
Maximum altitude 07:39:14 16° 38° (NE) 2,265 - -54.9°
Drops below altitude 10° 07:42:44 10° 73° (ENE) 2,616 - -54.3°
Exits shadow 07:45:32 - 91° (E) 3,288 11.2 -53.8°
Sets 07:46:23 0° 95° (E) 3,530 11.4 -53.7°
